World > North America > United States > Mississippi > Sonora  

Sonora, MS Hourly Weather Updates

Feedback E-mail the Weather

Quick Clicks

Sonora, MS Weather Maps

°F °C°F °C
Sonora Weather Map
UTC Time: 4/16/2024, 23:41
Your Time:

Sonora, MS Regional Weather

Expires:202404170000;;865780
ASUS44 KJAN 162310
RWRMS 

MISSISSIPPI HOURLY WEATHER ROUNDUP
NATIONAL WEATHER SERVICE JACKSON MS
600 PM CDT TUE APR 16 2024

NOTE: "FAIR: INDICATES FEW OR NO CLOUDS BELOW 12,000 FEET WITH NO
SIGNIFICANT WEATHER AND/OR OBSTRUCTIONS TO VISIBILITY.


MSZ003>006-009-014>017-022>024-029>033-037>039-170000-
NORTHEAST MISSISSIPPI
  
CITY           SKY/WX    TMP DP  RH WIND       PRES   REMARKS
ABERDEEN       PTSUNNY   81  64  57 S15       29.97R                  
COLUMBUS AFB   PTSUNNY   81  62  51 S12       29.92S                  
CORINTH        CLOUDY    79  64  61 S13G21    29.91S                  
GOLDN TRIANGLE PTSUNNY   81  62  52 S16       29.97S                  
IUKA             N/A     79  58  49 S8        29.94S                  
LOUISVILLE     PTSUNNY   79  63  57 S14G21    29.98F                  
STARKVILLE     PTSUNNY   81  64  57 S12       29.93F                  
TUPELO         PTSUNNY   82  60  47 S18G29    29.92S                  
$$


SKY/WX - Weather  TMP - Temperature  DP - Dew Point  RH - Humidity
WIND - Wind Direction/Speed PRES - Barometric Pressure VSB - Visibility
WCI - Wind Chill Index E13G22 Wind - East Wind 13 mph/Gusts of 22 mph

Trending Headlines

Trending Entertainment Headlines

Sonora Radar Loop

Use the map search tool if you want to place a location marker on the radar map...

Sonora Quick Facts

National Two Day Weather Forecast


E-mail the Sonora Weather Forecast

Voice your opinion or tell us about page issues...